Regional Weather Roundup
Issued by NWS

Home | Current Version | Previous Version | Text Only | Print | Product List | Glossary On
Versions: 1 2 3 4 5 6 7 8 9 10 11 12 13 14 15 16 17 18 19 20 21 22 23 24 25 26 27
000
ASUS44 KJAN 030210
RWRMS

MISSISSIPPI HOURLY WEATHER ROUNDUP
NATIONAL WEATHER SERVICE JACKSON MS
800 PM CST FRI DEC 02 2016

NOTE: "FAIR: INDICATES FEW OR NO CLOUDS BELOW 12,000 FEET WITH NO
SIGNIFICANT WEATHER AND/OR OBSTRUCTIONS TO VISIBILITY.

MSZ001>002-007>008-010>013-018>021-025>028-034>036-030300-
NORTHWEST MISSISSIPPI

CITY           SKY/WX    TMP DP  RH WIND       PRES   REMARKS
CLEVELAND      FAIR      53  38  57 NE3       30.27R
GREENWOOD      PTCLDY    47  35  63 CALM      30.26R
GREENVILLE     CLOUDY    53  36  52 NE6       30.26R
OXFORD         FAIR      45  36  70 CALM      30.29S
WINONA         FAIR      44  38  81 CALM      30.26R
$$

MSZ003>006-009-014>017-022>024-029>033-037>039-030300-
NORTHEAST MISSISSIPPI

CITY           SKY/WX    TMP DP  RH WIND       PRES   REMARKS
COLUMBUS AFB   CLOUDY    47  38  72 CALM      30.26S
GOLDN TRIANGLE CLOUDY    48  34  57 CALM      30.23S
STARKVILLE     FAIR      45  34  65 CALM      30.28S
TUPELO         CLOUDY    47  37  68 CALM      30.26S
$$

MSZ040-058-030300-
CENTRAL MISSISSIPPI

CITY           SKY/WX    TMP DP  RH WIND       PRES   REMARKS
JACKSON INTL   CLOUDY    52  33  48 E6        30.25R
JACKSON HAWKNS CLOUDY    55  30  38 E5        30.25R
MADISON        FAIR      48  37  66 CALM      30.24R
MERIDIAN KEY   PTCLDY    45  37  73 CALM      30.28R
MERIDIAN NAS   PTCLDY    47  36  65 CALM      30.27S
VICKSBURG VKS  CLEAR     48  41  76 CALM      30.24R
$$

MSZ059>079-030300-
SOUTH MISSISSIPPI

CITY           SKY/WX    TMP DP  RH WIND       PRES   REMARKS
BROOKHAVEN     FAIR     N/A N/A N/A CALM      30.24R
COLUMBIA       FAIR      55  36  47 CALM      30.26R
HATTIESBURG    CLOUDY    54  39  57 CALM      30.24R
LAUREL         FAIR      54  35  48 NE5       30.24F
MCCOMB         CLOUDY    57  34  41 NE3       30.23R
NATCHEZ        PTCLDY    55  36  47 E6        30.22R
PINE BELT      PTCLDY    54  34  47 CALM      30.25R
$$

MSZ080>082-030300-
COASTAL MISSISSIPPI

CITY           SKY/WX    TMP DP  RH WIND       PRES   REMARKS
BILOXI         CLOUDY    59  40  48 NE7       30.21R
PASCAGOULA     CLOUDY    56  41  57 NE3       30.22R
GULFPORT       CLOUDY    60  39  45 NE7       30.21R
$$

LAZ007>009-015>016-023>026-030300-
NORTHEAST LOUISIANA

CITY           SKY/WX    TMP DP  RH WIND       PRES   REMARKS
BASTROP        FAIR      50  39  65 E5        30.23F
TALLULAH/VBURG CLOUDY    49  39  68 CALM      30.25R
VIDALIA        FAIR      56  40  55 NE6       30.24R
$$




USA.gov is the U.S. government's official web portal to all federal, state and local government web resources and services.